Temp
10 10 11 11 11 13 13 13 13 12 11 11 11 11 12 12 13 13 13 13 14 14 14 15 16 16 16 18 14 13 15 15 16 17 18 20 21 21 21 20 20 18 16 15 15 15 14
10 10 10 11 12 13 13 13 13 13 12 12 12 12 12 13 13 13 13 14 14 14 15 15 16 16 17 18 13 13 14 15 15 17 19 20 20 20 19 18 17 17 16 15 15 15 14
10 10 10 11 11 13 13 13 13 13 13 13 12 12 13 13 13 14 13 14 14 14 15 15 16 17 15 13 13 14 14 15 16 17 18 17 18 19 20 16 17 16 16 15 16 16 15
10 10 10 10 11 13 13 13 13 13 13 13 13 13 13 13 13 14 14 14 14 15 15 16 16 16 14 14 14 14 15 16 16 16 16 17 18 18 18 16 17 17 18 17 16 16 13
12 11 10 10 11 12 13 13 13 13 13 13 13 13 13 13 13 14 14 14 15 15 15 16 17 17 15 14 14 13 14 14 16 17 16 17 18 17 17 17 17 18 18 20 15 15 15
12 12 12 11 11 12 13 13 13 13 13 13 13 13 13 13 14 14 14 15 15 15 16 16 17 17 15 14 13 13 14 14 16 17 17 18 18 17 17 17 16 16 19 18 18 14 15
13 12 12 13 12 12 13 13 13 13 13 13 13 13 13 14 14 14 14 15 15 16 14 13 13 15 14 13 14 14 13 14 17 17 17 18 16 13 14 14 16 16 16 17 17 14 12
13 13 12 12 12 12 12 13 13 13 13 13 13 13 13 14 14 14 14 16 14 14 13 14 13 13 12 12 15 13 14 16 17 16 17 16 13 13 15 15 15 17 16 16 15 14 13
13 13 12 12 12 12 12 13 13 13 13 13 13 13 13 13 14 14 15 14 14 13 16 13 13 14 13 13 13 12 13 15 15 17 16 12 12 14 14 14 14 13 13 13 13 12 14
12 12 13 12 12 12 12 12 13 13 13 13 13 13 13 14 14 14 15 14 14 14 16 14 14 13 13 13 13 12 12 12 15 15 14 12 13 13 14 12 11 15 11 12 12 10 12
13 12 12 12 12 12 12 12 12 12 13 13 13 13 13 13 13 15 13 14 14 13 16 15 13 12 13 14 13 13 12 14 14 13 14 11 11 12 13 10 10 10 11 11 12 11 10
12 12 12 12 12 12 11 12 12 12 12 12 12 13 13 12 13 13 13 13 13 16 16 14 14 14 14 14 14 14 14 14 13 14 11 10 10 10 10 10 10 11 11 11 12 11 8
13 13 12 12 12 12 11 11 11 12 12 12 12 12 12 12 12 12 13 13 16 16 16 14 14 14 15 14 14 14 15 14 13 13 13 11 10 9 10 11 10 10 11 10 11 9 11
13 13 12 12 12 12 11 11 11 11 12 11 12 11 11 11 11 12 12 15 16 19 17 14 14 14 15 14 14 14 14 13 13 14 13 11 11 9 9 9 9 12 11 8 11 10 10
13 12 12 12 12 12 11 11 11 10 11 11 11 10 9 10 11 11 13 14 16 19 16 14 14 14 14 13 13 14 15 13 11 11 11 12 9 8 8 9 9 10 10 10 6 9 7
13 13 12 12 12 11 11 11 10 10 10 10 10 10 8 9 10 11 13 15 17 15 15 15 15 15 15 13 13 13 13 12 10 11 11 11 9 9 7 8 9 9 8 8 6 7 8
12 12 12 12 12 11 11 11 10 10 10 10 11 10 7 8 10 11 11 13 14 14 15 15 15 15 16 14 13 15 14 10 11 10 11 12 10 8 8 7 9 7 5 6 5 5 6
12 12 12 13 11 12 11 11 10 9 8 10 9 9 6 7 10 9 10 13 12 12 12 13 14 15 15 14 13 15 13 9 9 10 10 9 6 9 9 6 6 7 7 5 6 6 3
11 12 12 12 12 11 11 10 9 8 7 8 7 5 5 6 9 8 9 11 12 11 12 12 13 13 12 13 9 12 7 6 8 8 9 8 7 8 7 4 6 6 5 1 -0 0 3
11 11 12 11 12 12 11 10 10 8 6 8 5 6 4 5 5 9 10 10 10 10 12 13 11 11 10 10 8 7 7 6 6 7 7 6 4 6 7 7 4 4 7 5 3 2 3
11 10 11 11 10 11 11 11 10 9 6 8 7 7 6 5 5 7 10 10 9 8 10 11 9 10 8 6 9 9 7 5 6 6 6 4 3 3 3 4 4 4 5 5 4 4 6
10 11 10 10 11 11 11 11 10 11 7 8 7 6 5 6 8 7 8 7 9 9 8 8 8 9 8 6 7 6 6 6 5 5 3 -0 3 0 1 4 2 0 1 3 5 5 3
9 10 10 10 10 11 11 11 9 6 6 7 6 5 8 6 7 7 7 8 9 7 6 6 7 7 6 5 3 2 1 0 2 3 2 2 0 -0 2 1 -1 2 3 4 3 1 4
9 9 10 10 10 10 10 10 9 6 9 9 7 7 6 6 7 8 7 8 8 8 6 4 6 6 2 2 1 1 -1 -2 -1 -1 1 4 4 4 1 -1 3 4 -4 -2 2 -0 2
8 9 10 10 10 11 10 11 10 9 8 7 7 7 6 6 6 7 7 5 4 2 2 1 -1 1 2 2 5 5 3 1 -3 -3 -2 -1 5 5 2 2 4 4 -2 -1 1 2 -5
8 9 9 10 11 11 11 10 10 10 7 7 7 7 5 5 6 6 5 6 5 3 1 -1 -2 -1 1 4 6 6 6 5 0 -2 -2 -1 0 4 1 1 2 2 -3 -6 -5 0 -7
8 9 9 10 10 10 11 11 10 6 6 8 7 6 6 4 0 2 5 6 4 3 1 -1 -2 -0 -1 5 6 5 6 0 2 1 -1 0 1 3 4 3 2 -2 -6 -8 1 2 -9
8 9 9 10 10 10 10 9 8 6 7 8 4 5 6 0 -4 -4 -4 3 3 3 4 -1 2 1 2 6 6 6 5 1 1 0 -1 0 1 1 2 4 3 -5 -5 1 -5 -11 -12
8 8 8 9 9 8 8 8 7 6 7 8 3 3 6 -2 -6 -6 -7 -6 -6 -5 -0 -1 1 1 3 5 4 3 2 -1 2 3 -3 2 2 2 3 3 -6 -6 -10 -13 -11 -11 -10
Height
823 823 824 824 824 824 823 823 823 823 823 823 824 824 824 823 823 823 823 822 821 820 819 818 816 815 816 817 825 823 819 817 816 815 814 811 809 809 814 817 817 823 832 835 838 837 837
822 822 823 823 823 824 823 823 823 823 823 824 824 824 824 824 823 824 823 822 821 820 819 818 817 816 817 819 826 824 820 819 817 815 814 813 812 811 818 823 826 828 832 837 837 839 841
820 821 822 822 823 823 823 823 823 823 823 824 824 824 824 825 824 823 823 822 821 820 819 819 818 817 819 828 826 824 822 821 820 818 817 817 816 814 816 829 827 830 834 836 837 838 840
818 820 820 821 822 822 823 823 823 823 823 823 824 824 825 824 824 823 823 822 820 819 819 819 818 818 826 827 826 824 823 822 821 820 819 818 818 819 821 827 829 831 827 834 837 837 842
816 817 819 820 820 821 821 822 823 823 823 823 823 824 824 824 824 823 823 822 820 819 820 819 819 818 827 828 827 826 826 825 822 821 820 819 819 824 827 829 831 827 832 824 841 838 840
813 815 816 817 819 819 820 821 822 822 822 822 823 823 823 823 823 823 823 822 821 820 820 820 821 823 829 832 830 828 827 825 824 821 821 820 820 825 825 830 846 840 828 829 832 845 841
810 812 813 815 816 817 818 820 820 821 822 822 822 823 823 822 823 823 823 822 824 824 825 831 832 830 832 833 830 830 828 826 824 821 823 822 829 844 841 840 838 838 838 836 834 846 849
805 808 811 812 813 815 816 818 819 819 820 821 821 822 823 822 823 823 823 822 823 825 832 833 832 833 835 834 830 831 829 828 824 827 825 830 847 849 843 841 840 836 838 839 842 845 849
800 803 806 809 810 812 814 815 817 818 819 820 821 822 822 822 823 823 823 823 823 824 824 834 834 833 836 835 835 836 834 830 830 829 831 846 853 847 845 845 846 850 852 855 857 851 843
794 798 801 804 807 809 811 812 814 816 817 818 819 821 822 822 825 822 823 823 823 824 825 834 833 836 836 835 838 838 837 838 833 838 841 851 852 849 847 855 860 847 862 859 859 868 858
784 790 795 800 802 805 808 809 812 814 815 817 818 820 821 822 822 822 824 823 824 826 838 832 834 836 835 837 839 839 838 834 837 843 843 861 857 855 851 868 864 869 864 862 860 864 867
778 783 787 793 796 801 804 807 809 811 813 815 817 818 820 822 822 822 821 823 825 829 836 833 832 832 834 834 837 838 838 839 840 840 850 862 863 866 865 865 865 864 863 861 860 865 890
773 773 779 785 790 795 800 804 807 808 811 813 815 817 819 821 821 821 822 824 830 834 822 833 831 831 829 834 837 835 836 839 843 848 848 859 867 869 868 864 865 866 861 872 870 884 865
765 768 771 776 783 787 795 800 803 806 808 811 814 816 818 819 820 820 823 826 833 809 814 826 829 832 831 834 836 836 836 840 842 843 845 858 861 873 871 871 870 859 864 885 876 872 874
760 762 766 765 775 781 788 794 799 803 805 809 812 816 818 818 819 821 823 828 818 803 815 826 833 833 835 837 837 836 833 838 846 849 855 851 872 879 879 873 873 866 866 871 900 875 896
753 755 758 760 767 773 780 787 794 798 804 807 809 816 819 818 820 822 823 817 807 810 813 819 822 823 826 835 838 835 836 844 852 851 851 853 869 874 881 878 873 871 874 883 895 901 889
747 749 754 753 760 764 771 779 787 793 800 806 809 814 819 819 821 822 824 817 813 813 813 816 816 821 818 827 831 828 832 855 849 853 851 846 857 880 881 882 873 882 889 888 894 898 900
739 743 749 745 756 760 763 770 776 785 796 804 806 816 819 819 823 825 824 810 815 818 819 818 817 815 817 823 830 823 834 851 854 853 854 862 872 868 871 884 885 881 879 884 892 893 905
734 736 742 742 751 757 759 763 769 777 786 797 807 818 820 818 817 827 820 815 814 819 819 821 819 818 825 826 845 835 855 864 860 860 859 863 870 878 879 896 886 884 884 900 910 912 904
728 730 734 739 745 751 756 758 763 771 781 792 804 814 821 819 820 814 815 814 817 821 815 816 822 824 829 834 842 853 858 864 863 863 865 866 879 877 882 876 887 892 874 883 895 909 896
720 724 729 734 741 744 749 755 758 762 773 783 791 795 799 817 818 813 805 806 813 822 819 820 828 825 830 851 841 844 854 867 865 865 867 873 888 887 886 882 883 884 877 880 884 875 874
714 715 722 726 733 739 743 747 749 751 763 772 781 789 799 800 794 807 807 811 808 814 820 824 824 823 826 841 836 847 850 856 860 868 875 886 887 901 902 880 890 902 887 881 867 866 872
709 708 714 720 724 731 735 743 746 751 757 764 772 777 780 792 796 799 799 801 801 810 824 825 821 826 834 839 845 852 854 862 862 866 876 878 896 905 899 895 906 890 864 858 863 868 858
702 702 707 713 716 723 728 735 739 743 748 756 761 767 779 786 788 787 790 793 797 803 817 828 825 824 845 844 849 854 862 872 875 880 875 870 875 880 903 908 890 846 869 866 855 863 852
694 695 699 707 708 714 720 726 731 737 747 752 754 759 764 778 783 786 785 798 808 817 827 835 842 840 840 843 843 851 864 873 891 893 888 884 866 872 897 893 859 843 866 863 858 852 865
688 690 693 699 700 707 714 720 726 733 743 749 751 753 756 769 779 781 787 790 800 815 831 845 847 845 844 836 837 843 849 854 882 893 891 887 885 875 894 899 886 854 863 868 869 862 866
684 685 688 692 696 703 708 714 720 731 739 745 748 751 754 769 785 785 784 787 793 805 822 841 846 846 847 831 835 841 841 867 867 870 889 885 881 873 871 873 860 857 865 870 863 845 867
679 680 685 689 693 699 704 709 715 727 736 742 748 749 751 774 793 793 793 788 794 797 805 833 835 841 841 828 827 830 834 856 856 862 871 869 873 876 874 865 859 856 867 851 855 866 868
675 677 682 686 691 696 703 707 714 726 735 739 747 749 752 767 797 798 799 800 799 804 808 820 818 819 817 820 826 833 843 860 849 848 865 857 843 851 844 838 849 850 857 861 860 864 867
Wind_Speed
10 10 9 7 6 4 2 1 1 2 3 4 5 6 7 7 5 4 6 7 7 7 7 6 6 1 2 4 4 13 14 14 10 8 6 5 4 2 1 5 1 5 5 5 3 4 5
11 11 11 9 8 6 4 2 1 2 3 4 5 5 5 5 3 2 6 8 8 8 6 5 5 3 3 1 5 12 13 12 13 10 7 7 6 5 7 5 5 4 7 6 2 3 2
13 12 13 11 10 8 6 4 3 3 3 4 5 5 5 5 3 2 7 8 8 8 5 4 2 3 8 4 5 12 11 9 10 9 7 7 6 4 3 5 3 7 4 5 3 2 3
14 14 14 13 12 11 9 7 5 4 4 4 5 6 6 6 5 5 7 8 9 4 6 3 2 1 4 3 4 11 9 4 8 6 5 6 7 5 4 5 4 4 2 3 2 3 2
16 16 15 15 14 13 11 9 7 6 5 4 5 6 6 6 6 5 6 7 6 2 5 3 3 4 4 2 4 9 9 5 6 4 3 1 2 3 2 3 3 4 1 3 3 3 3
19 18 17 16 16 15 13 11 9 7 5 5 5 7 6 5 4 5 5 3 8 7 5 3 3 1 3 3 6 9 7 6 3 4 2 3 2 4 2 3 1 4 2 3 1 3 3
21 20 19 18 17 17 15 14 12 9 7 5 5 6 6 5 4 4 3 3 2 2 11 5 4 2 2 7 4 7 7 10 3 5 1 1 1 5 7 6 2 4 4 4 4 3 3
24 23 21 20 19 18 17 16 14 11 8 6 6 6 5 4 2 3 1 4 2 3 5 4 3 5 2 3 1 11 13 2 3 2 1 1 5 5 3 4 3 2 1 2 2 1 2
30 26 23 22 21 20 18 18 16 13 10 8 7 7 5 4 1 0 1 2 4 1 1 3 2 3 2 6 4 6 10 3 4 4 5 6 3 2 3 4 4 6 4 4 3 8 5
36 29 25 24 23 22 20 19 18 15 12 10 9 8 6 4 1 3 0 4 2 1 3 3 2 2 1 2 3 3 5 2 2 5 6 5 1 2 2 5 5 1 5 4 6 7 3
35 32 28 27 25 24 22 20 19 17 14 11 10 9 8 8 1 1 3 4 1 1 4 1 3 0 1 2 0 2 2 3 5 4 1 1 4 4 4 3 4 2 2 2 2 3 4
31 32 34 31 26 26 24 22 21 19 16 14 11 8 7 8 2 3 6 4 2 0 5 3 2 3 3 1 2 2 0 3 3 3 8 4 0 4 2 2 2 1 3 4 1 1 2
28 30 38 35 31 27 26 25 23 20 18 15 13 10 11 8 2 6 7 2 1 3 2 3 2 4 1 3 3 1 2 3 1 2 3 3 3 2 2 2 3 4 2 1 3 2 3
28 26 38 36 37 31 29 27 24 22 19 16 13 11 8 6 6 9 3 2 4 2 3 2 3 2 2 4 2 3 3 4 2 2 2 4 2 3 4 3 2 3 2 3 3 2 2
33 28 32 34 44 36 33 29 26 23 21 18 15 10 4 4 8 9 2 3 5 1 7 8 2 4 3 2 0 5 3 3 4 4 4 1 2 2 4 4 3 1 1 1 3 2 3
34 24 30 26 39 44 38 32 29 26 23 22 16 8 2 6 9 3 1 3 4 3 5 5 6 8 7 7 4 5 7 2 4 2 2 2 3 1 1 3 1 1 2 2 1 1 4
35 29 27 22 38 46 42 37 33 29 26 24 11 3 0 7 8 1 4 5 3 2 0 6 4 4 4 6 5 4 5 2 2 2 4 1 3 2 2 4 3 2 1 2 3 3 4
24 25 30 23 26 36 40 40 39 35 31 20 6 2 2 9 3 1 3 2 3 3 2 1 1 3 5 6 4 3 4 4 5 1 1 1 3 2 3 3 5 4 2 4 3 4 3
25 25 22 23 26 30 37 41 42 40 41 20 4 2 2 3 5 3 3 2 0 4 4 5 3 2 1 4 4 4 6 3 4 4 2 1 1 1 3 4 1 4 3 3 4 2 5
27 26 27 25 29 33 27 42 43 41 40 20 4 4 1 2 1 4 5 4 5 1 3 1 3 4 4 3 4 4 3 2 1 3 3 2 2 5 5 3 3 2 4 5 5 3 3
30 28 27 28 28 28 32 34 43 45 49 19 4 4 5 5 5 5 8 8 7 6 2 5 1 4 6 4 3 5 4 4 1 3 3 3 3 3 4 2 2 3 5 9 11 9 5
28 27 28 29 30 30 30 36 51 48 53 11 5 4 0 4 5 12 8 7 12 5 7 6 4 8 5 6 6 8 7 5 5 3 3 3 2 3 5 0 5 5 11 11 16 12 11
28 26 26 26 27 30 31 32 54 52 47 6 5 4 4 6 6 10 7 8 11 12 2 3 6 5 5 4 6 5 7 6 4 7 4 5 5 2 4 2 4 8 15 17 5 5 8
30 27 27 30 30 29 32 34 54 58 52 14 10 7 4 3 6 9 11 7 13 12 7 1 3 4 4 15 12 8 11 12 11 8 6 6 6 3 3 3 3 7 3 3 9 5 10
27 28 27 31 30 30 32 37 47 54 55 15 14 6 3 4 4 4 13 7 12 7 4 4 5 3 16 3 3 4 3 4 5 5 5 5 3 2 2 4 8 3 3 5 6 7 1
24 23 25 29 28 29 35 33 38 45 50 20 18 10 3 7 7 5 5 11 5 4 4 4 4 7 1 2 2 5 5 4 2 2 3 2 3 2 2 3 7 5 3 1 2 5 2
24 22 20 30 28 33 32 34 43 52 40 25 10 11 6 4 2 2 4 7 6 5 4 5 5 2 2 2 2 3 3 1 4 7 5 4 2 8 7 5 8 3 4 3 5 6 3
24 23 21 29 30 27 26 31 48 47 36 21 10 12 7 3 3 6 6 3 3 3 5 6 5 1 1 3 3 4 3 5 2 4 7 8 8 5 4 5 10 7 3 7 4 2 4
23 22 23 21 28 29 30 38 50 45 35 19 7 16 18 8 4 9 16 13 8 3 4 5 2 4 5 3 1 3 2 2 3 3 3 3 6 5 10 6 2 6 3 2 2 5 3
Wind_Direction
245 244 245 245 244 240 242 213 125 122 119 131 132 134 140 136 118 70 30 14 11 2 355 2 3 41 348 110 32 340 353 14 11 358 2 337 271 354 106 75 246 75 103 73 79 40 38
246 242 242 242 240 239 238 231 199 175 161 156 161 166 164 160 136 60 5 3 1 354 356 9 22 79 294 137 358 347 5 9 14 4 24 357 17 47 68 50 19 94 100 121 126 109 91
244 241 241 238 236 234 232 228 218 203 192 188 191 196 196 202 215 311 336 343 342 349 356 359 61 86 54 69 7 355 11 11 18 18 66 18 348 354 153 121 131 157 121 163 116 69 87
241 240 238 237 235 232 231 227 222 217 211 208 212 216 224 230 251 291 319 335 331 344 4 23 87 295 75 9 63 13 20 50 28 38 57 43 52 78 15 123 146 223 264 192 67 325 113
245 241 237 237 233 232 229 229 226 225 222 218 222 223 229 241 260 284 314 340 6 18 22 56 6 289 90 18 24 358 2 350 338 44 42 17 12 107 164 240 185 197 278 102 141 37 330
249 243 239 236 234 232 229 227 226 227 225 225 230 220 223 232 248 285 309 270 35 23 355 6 34 97 51 10 333 349 339 351 326 300 212 237 196 185 225 349 36 333 0 110 46 36 314
246 247 242 239 236 232 229 227 223 223 227 225 221 217 216 221 252 287 318 328 215 166 42 59 18 97 48 328 350 14 355 331 234 250 255 117 334 62 48 46 3 352 352 340 68 57 327
240 242 243 240 235 233 229 227 223 219 220 222 211 206 211 212 257 272 323 287 54 113 102 73 111 96 51 334 267 24 2 290 247 85 297 206 67 29 14 14 335 331 296 347 111 131 223
237 235 239 239 235 232 229 226 223 217 214 214 208 200 202 203 228 57 280 153 140 94 268 84 52 43 357 331 49 2 354 302 16 63 51 72 55 337 330 54 355 58 13 20 334 320 233
233 232 233 236 236 232 229 225 222 216 212 209 205 204 201 180 216 181 162 171 151 42 250 128 144 93 224 327 84 360 5 4 53 75 56 65 32 355 96 77 349 122 11 355 330 6 314
233 231 233 233 233 233 230 225 220 214 210 206 199 202 201 182 85 203 169 173 106 357 317 72 112 67 227 22 61 86 346 266 57 94 236 84 31 5 50 34 327 127 342 6 328 298 34
223 240 234 230 230 231 230 225 219 213 207 201 198 193 192 194 202 209 158 129 45 276 253 106 121 140 183 163 104 143 167 57 354 103 51 93 226 30 53 130 13 109 247 207 222 238 26
229 231 237 225 226 227 227 223 219 212 204 200 192 180 171 178 141 174 141 157 292 221 40 154 162 190 269 130 129 254 166 141 356 118 157 151 62 108 315 213 196 238 258 322 353 5 250
229 233 231 228 225 220 224 220 216 210 199 194 189 185 190 179 164 152 134 172 226 358 159 69 92 134 226 160 99 151 176 180 122 308 316 161 259 3 334 34 17 0 26 131 237 340 308
227 236 231 226 221 218 217 215 212 205 197 185 168 157 156 181 163 150 171 187 208 163 116 141 104 210 171 179 227 200 209 66 62 48 150 21 82 102 25 344 356 19 118 117 86 273 55
226 235 228 225 235 218 215 210 206 199 191 173 151 144 139 157 150 136 174 236 207 41 121 153 193 192 189 172 183 193 160 2 119 29 347 146 114 322 137 272 342 24 182 100 348 19 279
228 230 240 237 232 216 208 203 200 193 178 164 140 131 189 156 138 81 192 226 131 121 18 183 217 145 274 156 205 194 119 352 22 127 299 54 118 129 91 216 163 165 106 48 107 147 191
215 222 229 219 245 223 210 204 200 184 167 169 125 147 212 171 124 205 180 226 73 151 24 162 281 80 180 136 186 215 133 66 8 76 107 39 107 154 86 39 355 325 334 149 138 244 232
220 212 224 211 220 229 213 208 195 184 175 152 124 87 319 296 164 198 257 152 124 158 191 179 150 88 9 131 132 78 79 318 29 30 101 204 14 26 319 359 313 251 202 104 93 80 221
221 219 213 221 216 218 227 203 200 189 170 155 141 155 12 9 54 161 167 197 181 1 177 186 115 94 111 109 37 143 126 129 42 96 63 112 91 170 200 205 136 219 204 186 152 162 208
222 226 220 219 224 216 219 217 209 197 176 165 179 179 170 177 210 201 193 175 147 165 235 153 269 216 158 120 115 167 113 133 100 121 62 85 159 24 289 164 178 220 226 197 209 217 213
225 219 222 218 218 226 221 216 207 215 182 169 148 145 218 170 157 169 185 194 173 137 142 217 208 182 159 150 181 186 132 163 184 166 126 4 135 79 301 354 149 241 248 241 242 241 256
223 214 220 222 217 222 225 223 203 181 166 159 156 136 129 159 144 179 190 177 186 126 316 324 175 122 122 130 97 76 70 66 113 134 139 135 123 109 257 353 330 295 235 218 196 195 212
228 221 225 230 225 231 227 221 197 190 200 189 175 146 132 171 181 192 164 163 166 173 135 48 25 111 133 120 111 69 61 61 52 32 27 143 136 144 253 25 260 239 135 135 213 229 216
236 229 229 232 227 230 218 221 203 211 200 196 170 169 128 128 159 140 157 121 97 70 86 75 14 332 154 142 99 87 31 36 27 24 7 0 149 190 190 214 292 293 230 167 160 270 224
230 222 226 240 223 216 210 207 214 218 189 198 169 152 118 118 202 131 127 161 138 118 107 79 330 17 316 171 130 163 190 173 230 32 30 9 11 156 105 208 239 240 224 204 111 283 203
219 224 233 221 218 202 198 202 207 184 187 179 152 152 108 107 45 46 152 167 118 111 99 128 168 190 282 156 138 160 204 157 178 177 164 135 180 217 210 241 282 201 156 141 98 242 149
219 223 221 204 190 195 209 197 187 177 180 167 141 136 126 84 49 10 8 110 111 137 138 148 129 229 137 182 161 187 169 205 144 147 174 168 161 187 185 223 270 143 77 172 181 13 144
216 225 218 207 202 192 196 183 175 177 181 167 116 114 112 77 93 94 77 62 61 49 105 185 341 155 168 148 148 98 135 124 183 232 350 231 195 182 191 210 187 189 136 197 112 134 174